Content
SEND FEEDBACK

Daily
Averages
Monthly
Summary
United States of America

ASHEVILLE, NORTH CAROLINA


Home > North America > United States > North Carolina
Elevation: 2240 feet     Latitude: 35 36N     Longitude: 082 32W

WEATHER
 
SELECT A DAY
Number of Records: 231,105;   Date Range: 1/1/95 - 12/18/14
 
SHARE

PRINT THIS DATA

[ ← Previous Day ]
WEATHER ALMANAC - JUNE 7, 2014
[ Next Day → ]
[ °C ]   °F
Weather ElementAverageHighLow
Temperature70.6 °F78.1 °F (12:54 pm)63 °F (5:54 am)
Dewpoint63.7 °F66.9 °F (10:54 pm)59 °F (5:54 am)
Humidity79.6 %96 % (10:54 pm)56 % (1:54 pm)
Barometer30.00 in30.08 in (11:28 am)29.91 in (1:54 am)
Wind Speed3.8 mph9.2 mph (3:54 pm)
Weather ElementAverage
Visibility8.8 mi
Wind DirectionESE (107.5 °)

Weather ElementTotal
Precipitation1.97 in
Cooling Degree Days5.6 (Base 65)
Growing Degree Days20.6 (Base 50)
Averaged from 36 records on June 7, 2014
WEATHER CONDITIONS BREAKOUT
WIND DIRECTION BREAKOUT
WEATHER BY HOUR - JUNE 7, 2014
[ °C ]   °F
Local TimeTemperatureDewpointHumidityBarometerVisibilityWind DirectionWind SpeedGust SpeedPrecipitationEventsConditions
1:54 AM68.0 °F60.1 °F76 %29.91 in10.0 miNorth (360°)6.9 mphMostly Cloudy
2:54 AM64.9 °F60.1 °F84 %29.93 in10.0 miNW (310°)3.5 mphMostly Cloudy
3:54 AM66.0 °F61.0 °F84 %29.92 in10.0 miCalmOvercast
4:54 AM64.9 °F60.1 °F84 %29.94 in10.0 miCalmMostly Cloudy
5:54 AM63.0 °F59.0 °F87 %29.96 in10.0 miNNW (330°)4.6 mphClear
6:54 AM63.0 °F60.1 °F90 %29.99 in10.0 miCalmScattered Clouds
8:54 AM68.0 °F60.8 °F78 %30.07 in10.0 miCalmClear
9:54 AM70.0 °F60.1 °F71 %29.99 in10.0 miCalmClear
10:54 AM73.9 °F62.1 °F66 %30.00 in10.0 miCalmMostly Cloudy
11:28 AM75.0 °F62.1 °F64 %30.08 in10.0 miSE (130°)5.8 mphMostly Cloudy
11:52 AM73.4 °F62.6 °F69 %30.08 in10.0 miEast (100°)3.5 mphOvercast
11:54 AM75.0 °F63.0 °F66 %30.00 in10.0 miVariable3.5 mphOvercast
12:54 PM78.1 °F62.1 °F58 %29.98 in10.0 miVariable4.6 mphMostly Cloudy
1:54 PM78.1 °F61.0 °F56 %29.96 in10.0 miSSE (160°)8.1 mphScattered Clouds
2:54 PM78.1 °F61.0 °F56 %29.94 in10.0 miSE (140°)5.8 mphScattered Clouds
3:54 PM70.0 °F64.9 °F84 %29.96 in2.0 miEast (90°)9.2 mph0.27 inRainHeavy Rain
4:08 PM71.1 °F66.0 °F84 %30.02 in10.0 miSSE (150°)5.8 mph0.06 inRainLight Rain
4:54 PM75.9 °F66.0 °F71 %29.94 in10.0 miSSE (150°)8.1 mph0.06 inScattered Clouds
5:54 PM77.0 °F64.9 °F66 %29.94 in10.0 miSE (130°)5.8 mphPartly Cloudy
6:54 PM75.9 °F64.9 °F69 %29.94 in10.0 miESE (120°)5.8 mphScattered Clouds
7:54 PM73.9 °F64.9 °F73 %29.95 in10.0 miSE (140°)6.9 mphMostly Cloudy
8:54 PM72.0 °F64.9 °F78 %29.96 in10.0 miSE (130°)4.6 mph0.00 inRainLight Rain
9:45 PM71.1 °F64.9 °F81 %30.03 in10.0 miCalm0.01 inOvercast
9:54 PM71.1 °F66.0 °F84 %29.96 in10.0 miSSW (210°)3.5 mph0.01 inOvercast
10:02 PM71.1 °F66.0 °F84 %30.04 in10.0 miCalmThunderstormOvercast
10:17 PM70.0 °F66.0 °F87 %30.04 in10.0 miSSE (150°)3.5 mph0.00 inRainLight Rain
10:35 PM68.0 °F64.9 °F90 %30.05 in3.0 miVariable5.8 mph0.04 inRainHeavy Rain
10:38 PM68.0 °F64.9 °F90 %30.04 in1.8 miESE (120°)6.9 mph0.21 inRainHeavy Rain
10:41 PM68.0 °F66.0 °F93 %30.04 in1.8 miSSE (160°)4.6 mph0.29 inRainHeavy Rain
10:45 PM69.1 °F66.0 °F90 %30.05 in2.5 miSouth (170°)5.8 mph0.32 inRainHeavy Rain
10:52 PM69.8 °F66.2 °F88 %30.05 in8.0 miSSW (200°)3.5 mph0.35 inRainLight Rain
10:54 PM68.0 °F66.9 °F96 %29.98 in9.0 miCalm0.35 inRainLight Rain
11:22 PM68.0 °F64.9 °F90 %30.06 in10.0 miCalm0.00 inThunderstormOvercast
11:37 PM68.0 °F66.0 °F93 %30.05 in10.0 miCalm0.00 inMostly Cloudy
11:51 PM68.0 °F66.2 °F94 %30.05 in10.0 miSSW (210°)4.6 mph0.00 inOvercast
11:54 PM68.0 °F66.0 °F93 %29.98 in10.0 miSSW (210°)4.6 mph0.00 inOvercast
Hourly data recorded from KAVL, located miles away from Asheville, North Carolina







STORIES FROM OUR PARTNERS